only yesterday Ragusa
Inserzionista dal 6 / 1 / 2024
Prodotti in vendita: 159
Prodotti spediti: 3
Ultima spedizione: 16 / 02 / 2024
Riscontri Positivi: 0

Riscontri Neutri: 0

Riscontri Negativi: 0

Altri prodotti disponibili del venditore

Prodotto Codice Titolo Anno Scadenza Prezzo vendita
DVD 8057092016121 (Blu-Ray Disk) Anna Dei Mille Giorni 2017 08/01/2025 6,38
DVD 8031179956074 (Blu-Ray Disk) Balla Coi Lupi (Blu-Ray+Dvd) 2019 08/01/2025 10,13
DVD 5051891001121 (Blu-Ray Disk) Batman Il Ritorno 2013 08/01/2025 6,50
DVD 5051891001121 (Blu-Ray Disk) Batman Il Ritorno 2013 08/01/2025 6,50
DVD 8033109405690 (Blu-Ray Disk) Caduta Dell'Impero Romano (La) 2012 08/01/2025 7,38
DVD 8010312097867 (Blu-Ray Disk) Cleopatra (50o Anniversario) (2 Blu-Ray) 2012 08/01/2025 6,50
DVD 8010312120428 (Blu-Ray Disk) Deadpool 2016 08/01/2025 14,49
DVD 8033109394345 (Blu-Ray Disk) Die Hard - Duri A Morire 2009 08/01/2025 12,25
DVD 7321973828419 (Blu-Ray Disk) Full Metal Jacket 2007 08/01/2025 6,00
DVD 4020628919191 (Blu-Ray Disk) Lawless 2013 08/01/2025 8,74
DVD 8031179958870 (Blu-Ray Disk) Lo Chiamavano Bulldozer (Blu-Ray+Dvd) 2019 08/01/2025 6,50
DVD 5051891141957 (Blu-Ray Disk) Lo Chiamavano Jeeg Robot 2016 08/01/2025 6,88
DVD 8057092700587 (Blu-Ray Disk) Nuovo Cinema Paradiso 2014 08/01/2025 6,50
DVD 8057092000502 (Blu-Ray Disk) Pane E Cioccolata 2014 08/01/2025 11,99
DVD 7321965216873 (Blu-Ray Disk) Qualcuno Volo' Sul Nido Del Cuculo 2008 08/01/2025 14,20
DVD 5051891024823 (Blu-Ray Disk) Re Dei Re (Il) (1961) 2011 08/01/2025 8,49
DVD 5053083030810 (Blu-Ray Disk) Schindler's List (Collana Oscar) 2015 08/01/2025 3,50
DVD 5053083146733 (Blu-Ray Disk) Serpico 2018 08/01/2025 10,13
DVD 8010312106842 (Blu-Ray Disk) Silenzio Degli Innocenti (Il) 2013 08/01/2025 9,13
DVD 8010312100031 (Blu-Ray Disk) Titanic (2 Blu-Ray) 2013 08/01/2025 6,38
DVD 8034108790343 (Blu-Ray Disk) Tobruk 2012 08/01/2025 12,49
DVD 7321965173770 (Blu-Ray Disk) Troy (Director's Cut) 2008 08/01/2025 14,20
DVD 8010773800334 (Blu-Ray Disk) Truman Show (The) 2011 08/01/2025 21,13
DVD 8057092018941 (Blu-Ray Disk) Vita E' Bella (La) (Nuova Edizione) 2017 08/01/2025 11,45
DVD 8034108780252 39 Scalini (I) 2011 08/01/2025 5,00
LIBRO 9788867435623 Adam Strange - L'Uomo Dei Due Mondi 2018 08/01/2025 5,97
LIBRO 9788830405981 Arte All'Incanto. Mercato E Prezzi Alle Aste Finarte (1984-1985). 1985 08/01/2025 16,79
LIBRO 9788876058219 Audrey Hepburn. La principessa Tiffany 1994 08/01/2025 12,65
DVD 8054317083166 Bacio Della Pantera (Il) (Restaurato In Hd) (Dvd+Poster) 2019 08/01/2025 9,49
DVD 8057829754876 Batman Vs Superman + Tshirt 2049 08/01/2025 12,49
DVD 8023562013068 Battaglia Della Neretva (La) 2018 08/01/2025 6,63
DVD 8023562014232 Beatrice Cenci (1956) 2049 08/01/2025 6,50
LIBRO 9788877420619 Burt Lancaster. Da qui all'eternità 1997 08/01/2025 14,21
LIBRO 9788877421821 Cary Grant 1998 08/01/2025 14,21
DVD 8026120171088 Cavaliere Misterioso (Il) 2008 08/01/2025 3,50
LIBRO 9781872727813 Collecting Dolls 1992 08/01/2025 7,25
LIBRO 9788467457124 Countdown presenta. Vol. 5 2015 08/01/2025 6,97
LIBRO 9788833049267 Crimini di guerra. Batman 2018 08/01/2025 6,97
LIBRO 9788841518496 Dalla preistoria alle prime civiltà 1994 08/01/2025 10,07
LIBRO 9788861232921 David 2008 08/01/2025 4,50
DVD 5051891164215 Dc Comics Box Set (3 Dvd) 2049 08/01/2025 10,13
LIBRO 9780785164036 Deadpool 2012 08/01/2025 7,50
LIBRO 9788876057564 Dino Risi. Maestro per caso 1993 08/01/2025 14,97
LIBRO 9788811740353 Dizionario dei cantautori 2003 08/01/2025 11,75
DVD 8031227002401 Due mafiosi contro Goldginger 2009 08/01/2025 4,00
LIBRO 9788898644322 E così conoscerai l'universo e gli dei 2017 08/01/2025 5,00
DVD 8032807013428 Ercole Sfida Sansone 2010 08/01/2025 3,50
LIBRO 9788877591364 Fatti contro finzioni. Ex Machina. Vol. 3 2007 08/01/2025 6,25
LIBRO 9788877421371 Frank Sinatra. The Voice 1997 08/01/2025 15,49
LIBRO 9788883022159 Fumo negli occhi. Tabacco, musica e cinema 2003 08/01/2025 30,00
LIBRO 9788876056581 Humphrey Bogart. Suonala ancora Sam 1992 08/01/2025 14,21
LIBRO 9788887497304 I camminatori 1998 08/01/2025 3,88
DVD 8032442212552 Il Commissario Montalbano Box Set 02 (2 Dvd) 2009 08/01/2025 9,38
LIBRO 9788883438967 Il demone nella bottiglia. Iron Man 2008 08/01/2025 6,50
LIBRO 9788869719271 Indovina chi. Batman 2015 08/01/2025 5,97
LIBRO 9788874712120 Io e te su Naboo 2009 08/01/2025 7,00
LIBRO 9788877422170 John Wayne 1998 08/01/2025 12,91
LIBRO 9788845056659 L'arte della cucina moderna 1994 08/01/2025 10,00
LIBRO 9788861235373 L'ascesa. Carriera criminale di Clelia C.. Vol. 1 2009 08/01/2025 4,50
LIBRO 9788838794544 L'estate in camicia nera. Rimini nelle cronache del Ventennio 1989 08/01/2025 7,23
LIBRO 9788865899571 L'ospite furioso. Gravel. Vol. 2 2013 08/01/2025 6,50
LIBRO 9788883436918 La grande corsa delle mucche. Bone (2) 2007 08/01/2025 5,00
LIBRO 9788868735807 La zona fantasma. Superman 2049 08/01/2025 6,97
LIBRO 9788874710935 Lambrusco & Cappuccino 2005 08/01/2025 6,00
DVD 8010312029707 Magnifici Sette (I) Collection (4 Dvd) 2006 08/01/2025 13,13
LIBRO 9788876056987 Marlene Dietrich. Stile e fascino dell'angelo azzurro. Ediz. illustrata 1992 08/01/2025 14,21
DVD 8010020040131 Messalina 2012 08/01/2025 7,45
DVD 8033650556988 Miserabili (I) - Caccia All'Uomo 2013 08/01/2025 6,25
DVD 8033650557237 Miserabili (I) - Tempesta Su Parigi 2013 08/01/2025 6,25
LIBRO 9788888893211 Monstars (1) 2007 08/01/2025 6,00
LIBRO 9788869116698 Nine stones. Ediz. deluxe. Ediz. variant. Vol. 2 2018 08/01/2025 12,45
LIBRO 9772464871007 Nirkiop #02 - Voglio Morire 2015 08/01/2025 2,00
DVD 8023562021339 Patton, Generale D'Acciaio 2021 08/01/2025 6,63
DVD 7321958318652 Paura In Palcoscenico 2010 08/01/2025 9,99
LIBRO 9788880802419 Peddes Gabriele Castelli Alfredo La Rosa Davide - 01/2017 - The Babbage Issue 5 2049 08/01/2025 3,50
LIBRO 9788861231771 Phonogram 2008 08/01/2025 7,00
DVD 8032807032054 Policarpo Ufficiale Di Scrittura 2010 08/01/2025 6,25
LIBRO 9788884160737 Quando ero fotografo 2004 08/01/2025 9,50
DVD 8032700993254 Quaranta Pistole 2012 08/01/2025 8,00
DVD 8019824923824 Quarto Potere E I Grandi Classici Di Hollywood Cofanetto (6 Dvd) 2018 08/01/2025 12,49
DVD 8023562001935 Quinto Non Ammazzare! 2012 08/01/2025 6,63
LIBRO 9788896070093 Ravioli Uèstern. Vol. 1: Muorisci domani 2010 08/01/2025 3,95
DVD 8023562013433 Re Dei Barbari (Il) 2018 08/01/2025 13,88
LIBRO 9788888893303 Regno di silenzio 2007 08/01/2025 3,50
LIBRO 9788888893693 Regno di silenzio 2015 08/01/2025 3,95
LIBRO 9788890626210 Rica'tte Kanji?! Una novellina a Tokyo 2011 08/01/2025 6,00
LIBRO 9788833047300 Rinascita. Batman. Ediz. Variant metalizzata. Vol. 37 2018 08/01/2025 4,97
LIBRO 9788865430088 Robot. Vol. 13: Colosseo 2010 08/01/2025 5,50
DVD 8010312070822 Rocky - La Saga Completa (6 Dvd) 2007 08/01/2025 11,49
LIBRO 9788886212434 Sicilia bedda. Cultura sapienziale: proverbi, leggende, religiosità 2005 08/01/2025 15,00
DVD 8034108780283 Signora Scompare (La) 2011 08/01/2025 10,80
LIBRO 9788876058417 Silvana Mangano. Il teorema della bellezza 1994 08/01/2025 12,65
LIBRO 9788884371492 Speed loop. Episodio zero 2006 08/01/2025 3,45
LIBRO 9783829086172 Stile britannico. L'interior design e la cultura dell'abitare. Ediz. illustrata 2003 08/01/2025 17,50
LIBRO 9788883433184 Summer of love. Trouble. Vol. 1 2004 08/01/2025 5,00
LIBRO 9788804569787 Tex. I mondi nascosti 2007 08/01/2025 4,95
DVD 8052432850298 Ti Ho Visto Uccidere 2012 08/01/2025 3,50
LIBRO 9788873091066 Topolino 1992 08/01/2025 7,75
LIBRO 9788888893310 Transgender. Rich vacant 2007 08/01/2025 2,50
LIBRO 9788861231849 Tre gironi. Dawn 2008 08/01/2025 8,00
sfoglia: prima ultima

I numeri Usato Unilibro

Totale Inserzionisti
14.699
Totale Articoli in vendita
89.153
Ultimo Inserzionista
Simona miele
Totale inserzionisti di oggi
5
Totale articoli inseriti oggi
7

Top inserzionisti

LibreriaLibrAria
74.762
mescalero62
1.274
max 78
1.178
Summer84
609
exing
542
rodriguez
406
logos
321
ida
235
Vale!
221
Tomiri.236
173
Andy
170
Usatodiale
163
only yesterday Ragusa
159
fede66
157
wenod
155
Aleph_C
153
simonac
149
I Libri di Filippo
148
Via di Carta
145
Billo
126
DEBORAHB
126
marcheromn
119
Marapara
108
scorpioncino65
104
davy
98